Weather History for KRDK - August, 2012

Change the Weather History Date:

Sunday, August 12, 2012

  Actual Average (KOMA) Record (KOMA)
Temperature  
Mean Temperature 76 °F 75 °F  
Max Temperature 87 °F 86 °F 106 °F (1936)
Min Temperature 66 °F 65 °F 44 °F (1964)
Degree Days  
Heating Degree Days 0 0  
Month to date heating degree days 0  
Since 1 June heating degree days 18  
Since 1 July heating degree days 1  
Cooling Degree Days 12 10  
Month to date cooling degree days 131  
Year to date cooling degree days 808  
Since 1 June cooling degree days 726  
Growing Degree Days 26 (Base 50)    
Moisture  
Dew Point 60 °F    
Average Humidity 63    
Maximum Humidity 78    
Minimum Humidity 38    
Precipitation  
Precipitation 0.01 in 0.13 in 6.30 in (1932)
Month to date precipitation 1.50  
Year to date precipitation 20.79  
Snow  
Snow 0.00 in 0.00 in - ()
Month to date snowfall 0.0  
Since 1 July snowfall 0.0  
Snow Depth -    
Sea Level Pressure  
Sea Level Pressure 29.91 in    
Wind  
Wind Speed 7 mph (SW)    
Max Wind Speed 16 mph    
Max Gust Speed 25 mph    
Visibility 10 miles    
Events Rain    
T = Trace of Precipitation, MM = Missing Value Source: NWS Daily Summary

Daily Weather History Graph

Daily Weather History Graph

Search for Another Location

Airport or City:

Trip Planner

Search our weather history database for the weather conditions in past years. The results will help you decide how hot, cold, wet, or windy it might be!

Date:

Astronomy

Aug. 12, 2012 Rise Set
Actual Time 6:28 AM CDT 8:22 PM CDT
Civil Twilight 5:58 AM CDT 8:52 PM CDT
Nautical Twilight 5:22 AM CDT 9:28 PM CDT
Astronomical Twilight 4:42 AM CDT 10:07 PM CDT
Moon 1:41 AM CDT (8/12) 4:49 PM CDT (8/12)
Length of Visible Light 14h 54m
Length of Day
13h 54m
Waning Crescent, 24% of the Moon is Illuminated
Aug 12
Waning Crescent
Aug 17
New
Aug 24
First Quarter
Aug 31
Full
Sep 8
Last Quarter

Hourly Weather History & Observations

Time (CDT) Temp. Heat Index Dew Point Humidity Pressure Visibility Wind Dir Wind Speed Gust Speed Precip Events Conditions
12:15 AM 69.8 °F - 62.6 °F 78% 29.98 in 10.0 mi ESE 6.9 mph - 0.01 in Rain Light Rain
12:35 AM 69.8 °F - 62.6 °F 78% 29.99 in 10.0 mi East 6.9 mph - 0.01 in   Overcast
12:55 AM 69.8 °F - 62.6 °F 78% 29.98 in 10.0 mi East 9.2 mph - 0.01 in   Overcast
1:15 AM 69.8 °F - 62.6 °F 78% 29.96 in 10.0 mi East 10.4 mph - N/A Rain Light Rain
1:35 AM 69.8 °F - 60.8 °F 73% 29.96 in 10.0 mi East 9.2 mph 17.3 mph N/A   Mostly Cloudy
1:55 AM 69.8 °F - 60.8 °F 73% 29.96 in 10.0 mi East 11.5 mph - N/A   Mostly Cloudy
2:15 AM 69.8 °F - 60.8 °F 73% 29.95 in 10.0 mi East 6.9 mph - N/A   Scattered Clouds
2:35 AM 68.0 °F - 59.0 °F 73% 29.95 in 10.0 mi ESE 5.8 mph - N/A   Clear
2:55 AM 66.2 °F - 59.0 °F 78% 29.95 in 10.0 mi SE 6.9 mph - N/A   Scattered Clouds
3:15 AM 66.2 °F - 59.0 °F 78% 29.95 in 10.0 mi Calm Calm - N/A   Mostly Cloudy
3:35 AM 66.2 °F - 59.0 °F 78% 29.96 in 10.0 mi Calm Calm - N/A   Scattered Clouds
3:55 AM 66.2 °F - 59.0 °F 78% 29.95 in 10.0 mi ESE 3.5 mph - N/A   Clear
4:15 AM 66.2 °F - 59.0 °F 78% 29.94 in 10.0 mi ESE 4.6 mph - N/A   Scattered Clouds
4:35 AM 66.2 °F - 57.2 °F 73% 29.95 in 10.0 mi ESE 4.6 mph - N/A   Mostly Cloudy
4:55 AM 66.2 °F - 57.2 °F 73% 29.94 in 10.0 mi ESE 4.6 mph - N/A   Scattered Clouds
5:15 AM 66.2 °F - 57.2 °F 73% 29.94 in 10.0 mi ESE 3.5 mph - N/A   Scattered Clouds
5:35 AM 66.2 °F - 57.2 °F 73% 29.94 in 10.0 mi SE 4.6 mph - N/A   Mostly Cloudy
5:55 AM 66.2 °F - 57.2 °F 73% 29.94 in 10.0 mi Calm Calm - N/A   Overcast
6:15 AM 66.2 °F - 57.2 °F 73% 29.93 in 10.0 mi SE 4.6 mph - N/A   Overcast
6:35 AM 66.2 °F - 59.0 °F 78% 29.93 in 10.0 mi ESE 4.6 mph - N/A   Light Drizzle
6:55 AM 66.2 °F - 59.0 °F 78% 29.93 in 10.0 mi SE 4.6 mph - N/A   Overcast
7:15 AM 66.2 °F - 59.0 °F 78% 29.93 in 10.0 mi SSE 3.5 mph - N/A   Overcast
7:35 AM 66.2 °F - 59.0 °F 78% 29.93 in 10.0 mi SE 3.5 mph - N/A   Overcast
7:55 AM 66.2 °F - 59.0 °F 78% 29.93 in 10.0 mi SE 4.6 mph - N/A   Overcast
8:15 AM 68.0 °F - 59.0 °F 73% 29.92 in 10.0 mi SSE 4.6 mph - N/A   Overcast
8:35 AM 69.8 °F - 59.0 °F 68% 29.92 in 10.0 mi SSE 6.9 mph - N/A   Mostly Cloudy
8:55 AM 69.8 °F - 60.8 °F 73% 29.92 in 10.0 mi SSE 5.8 mph - N/A   Overcast
9:15 AM 71.6 °F - 60.8 °F 69% 29.91 in 10.0 mi SSE 8.1 mph - N/A   Overcast
9:35 AM 73.4 °F - 60.8 °F 65% 29.91 in 10.0 mi SSE 8.1 mph - N/A   Overcast
9:55 AM 73.4 °F - 60.8 °F 65% 29.91 in 10.0 mi SSE 9.2 mph - N/A   Overcast
10:15 AM 75.2 °F - 60.8 °F 61% 29.90 in 10.0 mi SSE 11.5 mph - N/A   Mostly Cloudy
10:35 AM 78.8 °F - 60.8 °F 54% 29.89 in 10.0 mi SSE 13.8 mph 20.7 mph N/A   Scattered Clouds
10:55 AM 78.8 °F - 60.8 °F 54% 29.88 in 10.0 mi SSE 11.5 mph 17.3 mph N/A   Clear
11:15 AM 80.6 °F 81.5 °F 60.8 °F 51% 29.88 in 10.0 mi SSE 10.4 mph 17.3 mph N/A   Clear
11:35 AM 82.4 °F 82.0 °F 57.2 °F 42% 29.87 in 10.0 mi South 16.1 mph 19.6 mph N/A   Clear
11:55 AM 82.4 °F 82.9 °F 60.8 °F 48% 29.87 in 10.0 mi South 11.5 mph 16.1 mph N/A   Clear
12:15 PM 82.4 °F 82.9 °F 60.8 °F 48% 29.87 in 10.0 mi South 9.2 mph - N/A   Clear
12:35 PM 82.4 °F 82.5 °F 59.0 °F 45% 29.86 in 10.0 mi Calm Calm - N/A   Clear
12:55 PM 84.2 °F 84.4 °F 60.8 °F 45% 29.85 in 10.0 mi SW 9.2 mph - N/A   Clear
1:15 PM 84.2 °F 84.4 °F 60.8 °F 45% 29.85 in 10.0 mi West 6.9 mph - N/A   Clear
1:35 PM 84.2 °F 83.8 °F 59.0 °F 42% 29.84 in 10.0 mi WSW 6.9 mph - N/A   Clear
1:55 PM 84.2 °F 83.8 °F 59.0 °F 42% 29.85 in 10.0 mi West 8.1 mph - N/A   Clear
2:15 PM 84.2 °F 84.4 °F 60.8 °F 45% 29.84 in 10.0 mi West 6.9 mph - N/A   Scattered Clouds
2:35 PM 87.8 °F 87.1 °F 59.0 °F 38% 29.84 in 10.0 mi West 9.2 mph - N/A   Scattered Clouds
2:55 PM 84.2 °F 84.4 °F 60.8 °F 45% 29.84 in 10.0 mi West 6.9 mph - N/A   Scattered Clouds
3:15 PM 84.2 °F 84.4 °F 60.8 °F 45% 29.84 in 10.0 mi West 5.8 mph - N/A   Mostly Cloudy
3:35 PM 87.8 °F 87.6 °F 60.8 °F 40% 29.84 in 10.0 mi West 8.1 mph - N/A   Mostly Cloudy
3:55 PM 86.0 °F 85.4 °F 59.0 °F 40% 29.83 in 10.0 mi WNW 8.1 mph - N/A   Mostly Cloudy
4:15 PM 84.2 °F 84.4 °F 60.8 °F 45% 29.83 in 10.0 mi WNW 6.9 mph - N/A   Mostly Cloudy
4:35 PM 82.4 °F 82.9 °F 60.8 °F 48% 29.84 in 10.0 mi WNW 11.5 mph - N/A   Mostly Cloudy
4:55 PM 82.4 °F 83.4 °F 62.6 °F 51% 29.85 in 10.0 mi NW 10.4 mph 17.3 mph N/A   Mostly Cloudy
5:15 PM 82.4 °F 83.4 °F 62.6 °F 51% 29.85 in 10.0 mi NW 10.4 mph - N/A   Mostly Cloudy
5:35 PM 82.4 °F 83.9 °F 64.4 °F 54% 29.85 in 10.0 mi NW 9.2 mph - N/A   Overcast
5:55 PM 80.6 °F 81.8 °F 62.6 °F 54% 29.86 in 10.0 mi NW 11.5 mph 18.4 mph N/A   Mostly Cloudy
6:15 PM 78.8 °F - 62.6 °F 57% 29.87 in 10.0 mi WNW 16.1 mph 25.3 mph N/A   Overcast
6:35 PM 77.0 °F - 62.6 °F 61% 29.88 in 10.0 mi NW 12.7 mph 19.6 mph N/A   Overcast
6:55 PM 75.2 °F - 62.6 °F 65% 29.88 in 10.0 mi NW 11.5 mph - N/A   Mostly Cloudy
7:15 PM 78.8 °F - 62.6 °F 57% 29.89 in 10.0 mi NW 12.7 mph 19.6 mph N/A   Mostly Cloudy
7:35 PM 77.0 °F - 62.6 °F 61% 29.89 in 10.0 mi NW 8.1 mph - N/A   Scattered Clouds
7:55 PM 75.2 °F - 62.6 °F 65% 29.89 in 10.0 mi NW 10.4 mph 16.1 mph N/A   Clear
8:15 PM 75.2 °F - 60.8 °F 61% 29.90 in 10.0 mi NW 9.2 mph - N/A   Mostly Cloudy
8:35 PM 73.4 °F - 60.8 °F 65% 29.90 in 10.0 mi NW 10.4 mph - N/A   Scattered Clouds
8:55 PM 71.6 °F - 60.8 °F 69% 29.91 in 10.0 mi WNW 6.9 mph - N/A   Scattered Clouds
9:15 PM 69.8 °F - 60.8 °F 73% 29.92 in 10.0 mi WNW 6.9 mph - N/A   Clear
9:35 PM 71.6 °F - 60.8 °F 69% 29.92 in 10.0 mi NW 9.2 mph - N/A   Scattered Clouds
9:55 PM 71.6 °F - 60.8 °F 69% 29.93 in 10.0 mi NW 8.1 mph - N/A   Mostly Cloudy
10:15 PM 71.6 °F - 60.8 °F 69% 29.93 in 10.0 mi NNW 6.9 mph - N/A   Overcast
10:35 PM 71.6 °F - 60.8 °F 69% 29.93 in 10.0 mi NW 10.4 mph - N/A   Overcast
10:55 PM 71.6 °F - 60.8 °F 69% 29.94 in 10.0 mi NW 11.5 mph - N/A   Overcast
11:15 PM 71.6 °F - 60.8 °F 69% 29.93 in 10.0 mi NW 10.4 mph - N/A   Overcast
11:35 PM 69.8 °F - 60.8 °F 73% 29.94 in 10.0 mi NW 10.4 mph - N/A   Overcast
11:55 PM 69.8 °F - 60.8 °F 73% 29.94 in 10.0 mi NW 11.5 mph 19.6 mph N/A   Overcast